[[{"header":{"parameterUnit":"m.s-1","parameterCategory":1,"la1":30.2991,"la2":30.254,"lo1":-89.0895,"lo2":-89.0444,"dy":0.0017,"dx":0.0017,"nx":28,"ny":28,"refTime":"2025-01-06T09:00:00:Z","depth":0,"parameterNumber":2,"parameterNumberName":"U-component_of_WINDS"},"data":[0,0,0,0,0,0,0,0,0,0,0,0,0,0,0,0,0,0,0,0,0,0,0,0,0,0,0,0,0,0,0,0,0,0,0,0,0,0,0,0,0,0,0,0,0,0,0,0,0,0,0,0,0,0,0,0,0,0,6.6022,6.6024,0,6.6266,6.6269,6.6272,6.6236,6.6232,6.6228,6.6224,6.6476,6.6486,6.6497,0,0,0,0,0,0,0,0,0,0,0,0,0,6.5527,6.5536,6.6022,6.6025,6.6028,6.6266,6.6269,6.6273,6.6237,6.6232,6.6227,6.6222,6.6473,6.6485,6.6498,0,0,0,0,0,0,0,0,0,0,0,0,0,6.5753,6.5539,6.6021,6.6039,6.6043,6.6265,6.627,6.6274,6.6238,6.6232,6.6226,6.622,6.6468,6.6484,6.6499,6.6721,0,0,6.6548,6.6555,0,0,0,0,0,0,0,0,6.5741,6.5772,6.6033,6.6038,6.6043,6.6214,6.6187,6.6424,6.624,6.6164,6.6224,6.6217,6.6394,6.6416,6.6475,6.6732,6.6743,6.6549,6.6559,6.6565,6.657,0,0,0,0,0,0,0,6.5725,6.5761,6.6118,6.6037,6.6043,6.6035,6.6061,6.6232,6.6311,6.617,6.6168,6.6197,6.6396,6.646,6.6481,6.6747,6.6549,6.6563,6.6572,6.6579,6.7202,6.7208,0,0,0,0,0,0,6.5704,6.5748,6.6111,6.6126,6.5873,6.6049,6.6078,6.6166,6.6309,6.6325,6.6202,6.6195,6.6436,6.6462,6.6489,6.6761,6.6565,6.658,6.6589,6.7195,6.7203,6.7211,0,0,0,0,0,0,6.5694,6.5737,6.6101,6.5937,6.5982,6.6064,6.6163,6.6174,6.6238,6.6333,6.6347,6.6254,6.6432,6.6467,6.6664,6.6769,6.6587,6.6602,6.7186,6.7197,6.7207,6.7303,0,0,0,0,0,0,6.568,6.5733,6.5817,6.5939,6.5991,6.6271,6.617,6.6183,6.6265,6.6258,6.6385,6.64,6.643,6.6641,6.668,6.6788,6.6614,6.7177,6.7191,6.7204,6.7291,6.7316,6.7337,0,0,0,0,0,6.5662,6.5834,6.5822,6.5866,6.6098,6.6277,6.6307,6.6338,6.6274,6.636,6.6421,6.6396,6.6751,6.6661,6.6705,6.6819,6.7171,6.7187,6.7203,6.7281,6.7311,6.7337,0,0,0,0,0,0,6.5723,6.585,6.5838,6.6054,6.6155,6.627,6.638,6.6368,6.6489,6.6477,6.651,6.6539,6.674,6.6798,6.6696,6.7042,6.6952,6.6978,6.6997,6.7026,6.7049,6.7031,6.6627,0,0,0,0,0,6.5761,6.5895,6.5999,6.618,6.6232,6.6297,6.6376,6.6391,6.6497,6.654,6.6615,6.672,6.6855,6.6943,6.7073,6.7299,6.7328,6.7399,6.7422,6.744,6.7463,6.759,6.7624,6.7263,6.7263,6.7263,0,0,6.5842,6.5928,6.6011,6.6195,6.6275,6.6415,6.6333,6.6483,6.6588,6.6563,6.6754,6.6814,6.6932,6.7146,6.7244,6.7201,6.7569,6.7461,6.7475,6.7487,6.761,6.7644,6.7675,6.7274,6.7272,6.727,0,0,6.6062,6.6139,6.63,6.6383,6.6505,6.6548,6.6586,6.6705,6.6743,6.6936,6.6921,6.7045,6.7276,6.7363,6.7437,6.7692,6.7675,6.7733,6.7854,6.7978,6.8006,6.8032,6.8126,6.8159,6.7755,6.7755,6.7755,0,6.6148,6.6357,6.6384,6.6538,6.6621,6.6604,6.6769,6.6847,6.7005,6.7064,6.7013,6.7306,6.7384,6.7619,6.7682,6.7741,6.7788,6.772,6.8,6.8026,6.805,6.814,6.8175,6.7761,6.7761,6.776,6.7759,0,6.6458,6.6603,6.6718,6.6873,6.6968,6.7126,6.718,6.7273,6.728,6.7329,6.7527,6.762,6.777,6.7826,6.7834,6.8064,6.8034,6.7992,6.7902,6.809,6.8176,6.821,6.7771,6.7769,6.7767,6.7765,0,0,6.6723,6.6892,6.6934,6.7005,6.714,6.7254,6.7412,6.7558,6.7639,6.7749,6.7885,6.8082,6.8044,6.8128,6.8146,6.8254,6.8454,6.8199,6.8202,6.8246,6.8717,6.8751,6.879,6.8443,6.8449,6.8454,6.8708,0,6.6958,6.7238,6.7269,6.7519,6.7655,6.7642,6.7781,6.7879,6.7929,6.8053,6.8108,6.8249,6.8186,6.8238,6.8344,6.8407,6.855,6.8389,6.8571,6.8577,6.8545,6.8834,6.887,6.9105,6.8742,6.8747,6.8751,0,6.727,6.739,6.7654,6.7773,6.7831,6.7955,6.8093,6.8211,6.8323,6.8352,6.8447,6.8451,6.8617,6.8519,6.8749,6.8639,6.8715,6.8757,6.8767,6.8788,6.8678,6.8865,6.918,6.9216,6.8804,6.8799,6.8796,0,6.7441,6.7669,6.7857,6.7918,6.806,6.8148,6.8211,6.8317,6.8404,6.8525,6.8582,6.8721,6.8797,6.8905,6.8947,6.8871,6.9176,6.9081,6.9207,6.9206,6.9273,6.9269,6.9608,6.9317,6.9317,6.9316,6.9315,0,6.7702,6.7865,6.7936,6.8053,6.8236,6.827,6.845,6.851,6.8605,6.8733,6.8729,6.885,6.8897,6.9026,6.906,6.9247,6.9281,6.931,6.9318,6.9313,6.9309,6.9365,6.9351,6.9326,6.9323,6.9322,6.932,0,6.7926,6.7979,6.8185,6.8302,6.8336,6.8466,6.8568,6.8681,6.8729,6.8892,6.8933,6.9009,6.9161,6.9213,6.9397,6.942,6.9639,6.963,6.9601,6.9604,6.9728,6.9717,7.0116,7.0172,6.9842,6.9845,6.9848,0,6.809,6.8216,6.8348,6.8434,6.8501,6.8639,6.8728,6.8767,6.886,6.8999,6.9096,6.9247,6.937,6.9614,6.9687,6.9828,6.9825,6.9956,6.9847,6.9838,6.9831,6.9825,6.9839,6.9977,6.998,6.9983,6.9985,0,6.8378,6.8399,6.8528,6.8668,6.8774,6.8886,6.8993,6.9064,6.9119,6.9225,6.938,6.9476,6.9665,6.9816,6.996,7.0026,7.0017,7.0019,7.0056,7.0053,7.0033,7.0049,6.966,7.001,7.0008,7.0006,7.0004,7.0003,6.858,6.8692,6.8803,6.8948,6.9033,6.9134,6.9248,6.9311,6.9441,6.9598,6.9613,6.9782,6.9893,7.0086,7.0159,7.0293,7.0257,7.0309,7.0324,7.0337,7.0348,7.0009,7.0319,7.0318,7.0317,7.0317,7.0316,0,6.8871,6.8942,6.9074,6.9226,6.934,6.932,6.9439,6.9536,6.9685,6.9789,6.991,7.0091,7.0238,7.0322,7.047,7.056,7.056,7.0598,7.0593,7.061,7.037,7.0325,7.0596,7.0596,7.0596,7.0596,7.0596,7.0596,6.9036,6.9225,6.926,6.9493,6.9563,6.9728,6.9798,6.9893,6.9976,7.0178,7.03,7.0354,7.0452,7.0606,7.0741,7.0762,7.0818,7.0861,7.0879,7.0654,7.0626,7.0598,7.0556,7.0872,7.0872,7.1107,7.1109,7.1111]},{"header":{"parameterUnit":"m.s-1","parameterCategory":1,"la1":30.2991,"la2":30.254,"lo1":-89.0895,"lo2":-89.0444,"dy":0.0017,"dx":0.0017,"nx":28,"ny":28,"refTime":"2025-01-06T09:00:00:Z","depth":0,"parameterNumber":3,"parameterNumberName":"V-component_of_WINDS"},"data":[0,0,0,0,0,0,0,0,0,0,0,0,0,0,0,0,0,0,0,0,0,0,0,0,0,0,0,0,0,0,0,0,0,0,0,0,0,0,0,0,0,0,0,0,0,0,0,0,0,0,0,0,0,0,0,0,0,0,-4.6372,-4.6369,0,-4.6066,-4.6063,-4.6059,-4.5897,-4.5897,-4.5896,-4.5896,-4.5555,-4.5547,-4.5538,0,0,0,0,0,0,0,0,0,0,0,0,0,-4.6789,-4.6783,-4.6373,-4.6369,-4.6365,-4.6067,-4.6062,-4.6058,-4.5897,-4.5897,-4.5896,-4.5896,-4.5558,-4.5548,-4.5537,0,0,0,0,0,0,0,0,0,0,0,0,0,-4.6558,-4.6781,-4.6373,-4.6249,-4.6235,-4.6068,-4.6062,-4.6057,-4.5897,-4.5897,-4.5896,-4.5896,-4.5562,-4.5549,-4.5536,-4.546,0,0,-4.5495,-4.5489,0,0,0,0,0,0,0,0,-4.6571,-4.6542,-4.6271,-4.6257,-4.6241,-4.602,-4.6084,-4.5856,-4.5897,-4.6024,-4.5896,-4.5896,-4.5708,-4.5683,-4.5625,-4.5444,-4.5429,-4.5494,-4.5486,-4.548,-4.5476,0,0,0,0,0,0,0,-4.6587,-4.6555,-4.625,-4.6267,-4.6249,-4.6199,-4.6166,-4.604,-4.5871,-4.6013,-4.6001,-4.5968,-4.57,-4.5639,-4.5616,-4.5424,-4.5494,-4.5482,-4.5474,-4.5469,-4.5156,-4.5156,0,0,0,0,0,0,-4.6627,-4.6569,-4.626,-4.6241,-4.641,-4.6192,-4.6155,-4.6091,-4.5872,-4.5839,-4.5969,-4.5962,-4.5661,-4.5632,-4.5603,-4.5497,-4.548,-4.5467,-4.546,-4.5157,-4.5156,-4.5156,0,0,0,0,0,0,-4.6637,-4.6601,-4.6272,-4.6402,-4.6356,-4.6186,-4.6114,-4.6085,-4.6024,-4.5839,-4.5805,-4.594,-4.566,-4.5622,-4.5497,-4.5483,-4.5462,-4.5449,-4.5157,-4.5157,-4.5156,-4.5286,0,0,0,0,0,0,-4.665,-4.6606,-4.6583,-4.6403,-4.635,-4.6181,-4.6114,-4.6079,-4.6005,-4.5992,-4.5802,-4.577,-4.5657,-4.5518,-4.5484,-4.5464,-4.5439,-4.5158,-4.5157,-4.5156,-4.5282,-4.529,-4.5296,0,0,0,0,0,-4.6665,-4.6626,-4.6582,-4.6546,-4.6319,-4.6181,-4.6149,-4.6028,-4.6005,-4.5974,-4.5854,-4.5776,-4.549,-4.5507,-4.5467,-4.5443,-4.5158,-4.5157,-4.5156,-4.5278,-4.5288,-4.5296,0,0,0,0,0,0,-4.68,-4.6601,-4.655,-4.6454,-4.6337,-4.6154,-4.6113,-4.6043,-4.5923,-4.5915,-4.576,-4.5718,-4.5606,-4.5511,-4.5533,-4.5354,-4.5315,-4.5306,-4.5421,-4.5429,-4.5436,-4.546,-4.5428,0,0,0,0,0,-4.6821,-4.6735,-4.656,-4.6492,-4.6436,-4.6286,-4.622,-4.6138,-4.6006,-4.5953,-4.5824,-4.5691,-4.557,-4.5494,-4.5373,-4.5267,-4.5218,-4.5229,-4.5237,-4.5244,-4.5237,-4.5167,-4.5168,-4.5154,-4.5154,-4.5154,0,0,-4.6858,-4.6739,-4.6692,-4.6516,-4.6415,-4.632,-4.6244,-4.6147,-4.6072,-4.5934,-4.5811,-4.5711,-4.5551,-4.5435,-4.5377,-4.5352,-4.523,-4.5243,-4.525,-4.5239,-4.5167,-4.5168,-4.517,-4.5153,-4.5153,-4.5153,0,0,-4.6879,-4.6783,-4.6714,-4.6616,-4.6467,-4.6366,-4.635,-4.6177,-4.6108,-4.5983,-4.5877,-4.5779,-4.5577,-4.5467,-4.5384,-4.536,-4.528,-4.5323,-4.536,-4.5294,-4.5295,-4.5295,-4.5282,-4.528,-4.5318,-4.5318,-4.5318,0,-4.6943,-4.6805,-4.6685,-4.6595,-4.6517,-4.6396,-4.6319,-4.6226,-4.6042,-4.5986,-4.5963,-4.5705,-4.5589,-4.5442,-4.5437,-4.5375,-4.5344,-4.5344,-4.5307,-4.5306,-4.5304,-4.5289,-4.5285,-4.5324,-4.5323,-4.5323,-4.5322,0,-4.6888,-4.6793,-4.6753,-4.6588,-4.6504,-4.6421,-4.628,-4.6208,-4.6131,-4.603,-4.5898,-4.5755,-4.5602,-4.556,-4.5481,-4.54,-4.5389,-4.5339,-4.5296,-4.5314,-4.5297,-4.529,-4.5333,-4.5331,-4.5329,-4.5327,0,0,-4.6986,-4.6757,-4.6743,-4.6665,-4.649,-4.6409,-4.6316,-4.6174,-4.6114,-4.5988,-4.5901,-4.5731,-4.5683,-4.5589,-4.5495,-4.5437,-4.5421,-4.5392,-4.5385,-4.54,-4.5316,-4.5354,-4.5351,-4.5368,-4.5366,-4.5365,-4.5328,0,-4.698,-4.682,-4.6707,-4.6585,-4.6491,-4.6372,-4.6289,-4.6168,-4.607,-4.5967,-4.5853,-4.5735,-4.5683,-4.5625,-4.5563,-4.5437,-4.5401,-4.5438,-4.5276,-4.5272,-4.532,-4.5343,-4.5383,-4.5356,-4.5321,-4.532,-4.5319,0,-4.6953,-4.6841,-4.6713,-4.6546,-4.6501,-4.6431,-4.6289,-4.6197,-4.6052,-4.5983,-4.5879,-4.5783,-4.5668,-4.5637,-4.5472,-4.55,-4.5425,-4.5352,-4.5348,-4.5327,-4.5296,-4.5319,-4.5345,-4.534,-4.5308,-4.5309,-4.531,0,-4.7034,-4.6849,-4.6748,-4.6685,-4.6488,-4.644,-4.6354,-4.621,-4.6131,-4.6002,-4.5948,-4.5805,-4.5726,-4.5613,-4.5477,-4.5468,-4.5323,-4.5282,-4.5256,-4.5259,-4.523,-4.5233,-4.5243,-4.5186,-4.5186,-4.5187,-4.5187,0,-4.7038,-4.6963,-4.6782,-4.672,-4.6629,-4.6495,-4.6406,-4.6307,-4.618,-4.6089,-4.5973,-4.5887,-4.5715,-4.5604,-4.5496,-4.5373,-4.5337,-4.5272,-4.5244,-4.5282,-4.529,-4.523,-4.5227,-4.5185,-4.5185,-4.5186,-4.5186,0,-4.7114,-4.6991,-4.6872,-4.6697,-4.665,-4.6591,-4.6435,-4.6364,-4.626,-4.6145,-4.6109,-4.5941,-4.5805,-4.5659,-4.5471,-4.5397,-4.5278,-4.5239,-4.5331,-4.5315,-4.5296,-4.5299,-4.5265,-4.5251,-4.5208,-4.5209,-4.5209,0,-4.7125,-4.7066,-4.6885,-4.6821,-4.6741,-4.6637,-4.6557,-4.6419,-4.6338,-4.6168,-4.6115,-4.5973,-4.5852,-4.5638,-4.5492,-4.5346,-4.53,-4.5298,-4.5277,-4.5316,-4.5296,-4.5301,-4.5291,-4.5305,-4.5306,-4.5307,-4.5308,0,-4.7155,-4.7097,-4.6992,-4.6864,-4.6774,-4.6664,-4.6548,-4.6498,-4.6335,-4.6248,-4.6114,-4.6021,-4.5832,-4.5688,-4.5525,-4.5423,-4.5335,-4.5317,-4.5302,-4.5339,-4.5394,-4.5361,-4.5347,-4.5317,-4.5316,-4.5316,-4.5315,-4.5315,-4.7195,-4.7136,-4.7001,-4.6885,-4.6786,-4.668,-4.6605,-4.6493,-4.6381,-4.6224,-4.6145,-4.6009,-4.5857,-4.563,-4.553,-4.5414,-4.5387,-4.5367,-4.5361,-4.5358,-4.5367,-4.5415,-4.5383,-4.5383,-4.5382,-4.5382,-4.5381,0,-4.7217,-4.7125,-4.7021,-4.6867,-4.6773,-4.6709,-4.6576,-4.6499,-4.6385,-4.6256,-4.6141,-4.5981,-4.5841,-4.5685,-4.5532,-4.5468,-4.5423,-4.5432,-4.5434,-4.5411,-4.5401,-4.5428,-4.5471,-4.5471,-4.5471,-4.5471,-4.5471,-4.5471,-4.7218,-4.7114,-4.7039,-4.688,-4.6783,-4.6658,-4.6587,-4.6485,-4.6381,-4.6213,-4.6099,-4.6002,-4.5857,-4.5693,-4.5558,-4.5514,-4.5461,-4.5482,-4.5426,-4.5419,-4.5412,-4.5405,-4.543,-4.5472,-4.5472,-4.5444,-4.5444,-4.5444]}]]